Current Version              Previous Version:    01  02  03  04  05  06  07  08  09  10  11  12  13  14  15  16  17  18  19  20  21  22  23  24  25  26  27  28  29  30  
   31  32  33  34  35  36  37  38  39  40  41  42  43  44  45  46  47  48  49  50  51  52  53  54  55  56  57  58  59  60  

[Printable]
528
ASUS44 KEWX 301510
RWRTX
SOUTH TEXAS REGIONAL WEATHER ROUNDUP
NATIONAL WEATHER SERVICE AUSTIN/SAN ANTONIO TX
900 AM CST FRI JAN 30 2015

NOTE: "FAIR" INDICATED FEW OR NO CLOUDS BELOW 12,000 FEET WITH NO
SIGNIFICANT WEATHER AND/OR OBSTRUCTIONS TO VISIBILITY.

* - THESE STATIONS ARE NOT NWS OR FAA STATIONS...AND ARE NOT SUBJECT
    TO NWS AND FAA QUALITY CONTROL.

TXZ171-172-183>190-301600-
TEXAS HILL COUNTRY AND EDWARDS PLATEAU

CITY           SKY/WX    TMP DP  RH WIND       PRES   REMARKS
JUNCTION       PTSUNNY   47  33  58 NE9       30.41R WCI  43
*LLANO         CLOUDY    48  34  57 NE8       30.48F WCI  45
BURNET           N/A    N/A N/A N/A MISG      30.46R
*HORSESHOE BAY CLOUDY    47  32  56 NE5       30.45S WCI  45
*KERRVILLE     MOSUNNY   47  34  60 NE10G16   30.41S WCI  42
*FREDERICKSBRG CLOUDY    45  32  60 NE12      30.41F WCI  39
*ROCKSPRINGS   PTSUNNY   45  32  61 E10G17    30.39R WCI  39
*BOERNE STAGE  PTSUNNY   46  32  57 NE12G18   30.42R WCI  41
*CASTROVILLE   PTSUNNY   51  34  52 NE10      30.42R
HONDO          MOSUNNY   51  34  52 NE14      30.41R
*UVALDE        MOSUNNY   52  35  52 E9G16     30.39R
DEL RIO        CLOUDY    55  36  48 NE5       30.37R
LAUGHLIN AFB   CLOUDY    54  37  51 NE8       30.38R
CARRIZO SPRGS  CLOUDY    54  36  50 E10       30.37S
$$

TXZ173-191>194-202-209-217>225-228-301600-
CENTRAL AND SOUTH CENTRAL TEXAS

CITY           SKY/WX    TMP DP  RH WIND       PRES   REMARKS
GEORGETOWN     CLOUDY    46  32  57 N10       30.46R WCI  41
AUSTIN/BERGSTM CLOUDY    48  34  58 N15       30.45R WCI  42
AUSTIN/MABRY   CLOUDY    48  33  56 NE8       30.46R WCI  44
*AUSTIN/EXEC   CLOUDY    46  34  61 N15       30.46R WCI  40
*LAGO VISTA    CLOUDY    47  33  59 NE9       30.45R WCI  42
SAN MARCOS     PTSUNNY   48  34  57 N20       30.44R WCI  41
NEW BRAUNFELS  PTSUNNY   50  34  54 NE17      30.41S WCI  44
RANDOLPH AFB   CLOUDY    50  33  52 NE10      30.41R WCI  45
PT SAN ANTONIO PTSUNNY   51  34  52 NE14G22   30.38R
SAN ANTONIO    CLOUDY    51  34  52 NE14G20   30.41R
STINSON FIELD  PTSUNNY   51  33  50 NE15      30.39R
*PLEASANTON    PTSUNNY   52  35  51 NE13      30.41R
*LA GRANGE     CLOUDY    50  37  62 N8        30.42R WCI  47
*GIDDINGS      CLOUDY    47  34  60 NE9       30.47R WCI  43
*GONZALES      NOT AVBL
$$

TXZ163>164-176>182-195>201-210>213-226-227-235-301600-
SOUTHEAST TEXAS

CITY           SKY/WX    TMP DP  RH WIND       PRES   REMARKS
COLLEGE STN    CLOUDY    47  35  63 NE10      30.45R WCI  42
*BRYAN         CLOUDY    46  35  65 NE8       30.46R WCI  41
*CALDWELL      CLOUDY    46  34  61 N8        30.49R WCI  42
*CROCKETT      CLOUDY    46  36  66 NE14G22   30.48R WCI  40
*BRENHAM       CLOUDY    49  37  64 NE8       30.44R WCI  45
HUNTSVILLE     PTSUNNY   46  36  68 NE8       30.43R WCI  42
CONROE         CLOUDY    48  36  63 NE8       30.43R WCI  44
HOUSTON BUSH   CLOUDY    50  39  66 NE13      30.42R WCI  45
HOUSTON HOBBY  CLOUDY    52  40  63 NE17      30.41R
*HOUSTON SW AP CLOUDY    50  41  70 N12       30.41R WCI  46
PEARLAND       CLOUDY    54  41  61 NE14G21   30.42R
HOUSTON HOOKS  CLOUDY    50  37  61 NE9G17    30.42R WCI  46
ELLINGTON FLD  PTSUNNY   52  41  66 N9        30.42R
SUGAR LAND     CLOUDY    53  40  61 NE13      30.40R
*HOUSTON EXEC  CLOUDY    50  39  66 NE10      30.43R WCI  46
*CLEVELAND MUN CLOUDY    48  39  71 E6        30.44R WCI  46
*WHARTON       MOSUNNY   51  42  70 N12       30.40R
*COLUMBUS      FAIR      50  38  62 N9        30.41R WCI  46
$$

TXZ214>216-236>238-301600-
THE UPPER TEXAS COAST

CITY           SKY/WX    TMP DP  RH WIND       PRES   REMARKS
*ORANGE        MOSUNNY   48  38  68 NE15      30.44R WCI  42
PORT ARTHUR    MOSUNNY   50  38  63 NE17      30.41R WCI  44
GALVESTON      PTSUNNY   54  45  71 NE17      30.39R
ANGLETON       PTSUNNY   53  43  68 NE15      30.38R
*BAY CITY      MOSUNNY   56  45  67 NE10G16   30.38R
PALACIOS       MOSUNNY   54  45  71 N13       30.38R
$$

TXZ229>234-239>247-301600-
TEXAS COASTAL BEND AND RIO GRANDE PLAINS

CITY           SKY/WX    TMP DP  RH WIND       PRES   REMARKS
VICTORIA       MOSUNNY   54  40  59 N14       30.39R
*BEEVILLE      MOSUNNY   55  40  57 NE10      30.38R
ROCKPORT       MOSUNNY   55  41  59 N17       30.36S
*PORT ARANSAS  MOSUNNY   55  45  67 N17G26    30.36R
*PORT LAVACA   MOSUNNY   53  43  68 N12       30.38S
*INGLESIDE     MOSUNNY   56  42  60 NE18G24   30.36R
CORPUS CHRISTI PTSUNNY   57  42  57 NE22G29   30.36R
CORPUS NAS     PTSUNNY   58  46  64 NE17      30.36R
*ROBSTOWN      MOSUNNY   58  41  54 NE15      30.37R
ALICE          PTSUNNY   59  41  51 NE16      30.37R
KINGSVILLE NAS PTSUNNY   58  45  62 NE16      30.36R
COTULLA        NOT AVBL
*FAITH RANCH   CLOUDY    57  36  44 E13G24    30.36R
LAREDO         PTSUNNY   58  40  51 E18       30.36S
$$

TXZ248>255-301600-
DEEP SOUTH TEXAS

CITY           SKY/WX    TMP DP  RH WIND       PRES   REMARKS
BROWNSVILLE    SUNNY     68  65  90 NE6       30.31R FOG
PORT ISABEL    SUNNY     69  65  86 NE7       30.30R
*SOUTH PADRE   SUNNY     64  64 100 CALM      30.30S
HARLINGEN      CLOUDY    63  62  97 NE13      30.31R
*HEBBRONVILLE  PTSUNNY   57  42  57 NE10      30.37R HAZE
MCALLEN        CLOUDY    63  62  97 NE9       30.33R FOG
*WESLACO       CLOUDY    61  59  94 N7        30.32R FOG
FALFURRIAS     CLOUDY    58  45  60 N10       30.36R
EDINBURG       LGT RAIN  61  59  93 NE8       30.33S
*ZAPATA        PTSUNNY   60  46  60 E15       30.33R
$$

TXZ213>215-236>238-242>244-246-247-251-254-255-301600-
CMAN STATIONS

STATION/POSITION TIME  TEMP    WIND        PRES    WAVE
                       AIR SEA DIR/SP/G            HT/PER
                 (UTC) (F)     (DEG/KT/KT) (MB)    (FT/S)
SABINE PASS      1500   48 56   40/ 15/ 21 1029.7
SEA RIM ST PARK  1500   49      50/ 13/ 17 1030.2
NORTH JETTY/GLS  1500   53 58   60/ 17/ 20   N/A
EAGLE POINT      1500   52 56   50/ 16/ 20 1029.5
MORGANS POINT    1500   51      60/ 12/ 15 1029.4
PORT O`CONNOR    1500           10/ 16/ 19   N/A
PORT ARANSAS     1500   55 61  360/ 18/ 21 1028.4
MALAQUITE BEACH  1500   57 63  360/ 19/ 21 1027.1
BAFFIN BAY       1500   58      30/ 17/ 19 1027.5
PORT ISABEL      1500   65 61   30/  6/  8 1026.0
$$

GMZ080-GMZ150>470-301600-
OFFSHORE BUOY REPORTS

STATION/POSITION TIME  TEMP    WIND        PRES    WAVE
                       AIR SEA DIR/SP/G            HT/PER
                 (UTC) (F)     (DEG/KT/KT) (MB)    (FT/S)
20 E GALVESTON   1500   54 58   60/ 17/ 19 1028.4    3/ 5
90 E PT ARANSAS  1500   62 67   40/ 19/ 23 1027.2    4/ 5
35 NE PT MANSFLD 1500   67 67   40/ 14/ 17 1025.9    2/ 4
200 E PT ISABEL  1500   71 72   80/ 10/ 12 1025.5    1/ 5
$$



577
ASUS44 KFWD 301510
RWRTX
NORTH TEXAS HOURLY WEATHER ROUNDUP
NATIONAL WEATHER SERVICE FORT WORTH TX
900 AM CST FRI JAN 30 2015

NOTE: "FAIR" INDICATES FEW OR NO CLOUDS BELOW 12,000 FEET WITH NO
SIGNIFICANT WEATHER AND/OR OBSTRUCTIONS TO VISIBILITY.

TXZ118-119-301600-
DALLAS/FORT WORTH METROPLEX

CITY           SKY/WX    TMP DP  RH WIND       PRES   REMARKS
DFW AIRPORT    PTSUNNY   43  31  62 NE9       30.50R WCI  38
DALLAS LOVE    PTSUNNY   45  30  55 E6        30.51R
FTW MEACHAM    PTSUNNY   44  31  60 NE10      30.50R WCI  39
DAL-EXECUTIVE  PTSUNNY   46  30  53 E10       30.49R
FTW-ALLIANCE   PTSUNNY   41  31  67 NE5       30.50R WCI  38
FTW-SPINKS     SUNNY     45  32  61 NE7       30.51S
ARLINGTON      PTSUNNY   47  30  51 NE9       30.50R
GRAND PRAIRIE  SUNNY     45  34  65 E7        30.51R
ADDISON        PTSUNNY   43  28  56 NE7       30.51R WCI  39
MESQUITE       SUNNY     43  30  61 NE3       30.50S
LANCASTER      PTSUNNY   43  31  62 NE6       30.52R WCI  39
$$

TXZ091>094-102>105-117-120-121-131>134-301600-
NORTH CENTRAL TEXAS

CITY           SKY/WX    TMP DP  RH WIND       PRES   REMARKS
SHRMAN/DENISON PTSUNNY   41  33  73 NE8       30.51F WCI  36
GAINESVILLE    PTSUNNY   39  29  67 N9        30.52F WCI  33
BOWIE          PTSUNNY   38  31  74 NE3       30.50S
BRIDGEPORT     CLOUDY    41  33  72 NE3       30.52S
DECATUR        PTSUNNY   40  30  66 NE10      30.49R WCI  34
DENTON         PTSUNNY   41  32  70 N10       30.50S WCI  35
MCKINNEY       PTSUNNY   41  32  70 NE8       30.50S WCI  36
GREENVILLE     PTSUNNY   41  32  70 NE5       30.51F WCI  38
ROCKWALL       PTSUNNY   40  32  72 NE13      30.48F WCI  33
TERRELL        PTSUNNY   44  33  65 NE8       30.50S WCI  39
WAXAHACHIE     PTSUNNY   43  33  69 NE10      30.50S WCI  37
CLEBURNE       PTSUNNY   43  32  65 NE10      30.49S WCI  37
GRANBURY       PTSUNNY   44  33  64 N3        30.52R
$$

TXZ083>090-098>101-113>116-127>130-139>142-154-155-301600-
WESTERN NORTH TEXAS

CITY           SKY/WX    TMP DP  RH WIND       PRES   REMARKS
WICHITA FALLS  PTSUNNY   40  30  67 NE8       30.52R WCI  34
WF-KICKAPOO    PTSUNNY   35  25  68 NE6       30.54R WCI  30
VERNON         PTSUNNY   42  27  55 E7        30.52S WCI  37
ABILENE        CLOUDY    42  30  62 E8        30.47S WCI  37
ABILENE-DYESS  PTSUNNY   42  31  65 E12       30.46S WCI  36
BRECKENRIDGE   PTSUNNY   44  31  61 E9        30.49S WCI  39
GRAHAM         CLOUDY    41  33  71 NE6       30.49R WCI  38
MINERAL WELLS  PTSUNNY   43  30  60 NE8       30.48R WCI  38
STEPHENVILLE   CLOUDY    42  31  66 NE8       30.50R WCI  36
COMANCHE       PTSUNNY   42  32  67 NE6       30.49R WCI  38
BROWNWOOD      CLOUDY    45  30  57 NE12      30.47F WCI  39
COLEMAN        CLOUDY    43  32  65 NE13G18   30.46S WCI  37
BRADY          PTSUNNY   46  34  61 NE12      30.42S
$$

TXZ143>147-156>162-174-175-301600-
CENTRAL TEXAS

CITY           SKY/WX    TMP DP  RH WIND       PRES   REMARKS
WACO           PTSUNNY   45  33  63 NE13      30.49R WCI  39
WACO-TSTC      SUNNY     45  36  70 N9        30.50R WCI  40
WACO-MCGREGOR  PTSUNNY   45  28  53 NE10      30.49S WCI  39
HILLSBORO      PTSUNNY   44  32  63 NE15G22   30.48R WCI  37
CORSICANA      PTSUNNY   45  33  63 NE10      30.50R WCI  40
MEXIA          PTSUNNY   44  32  62 NE13G20   30.46R WCI  38
HEARNE         PTSUNNY   46  36  68 NW5       30.48R
CAMERON        CLOUDY    47  37  67 N8        30.48R
TEMPLE         CLOUDY    46  30  53 NE12      30.47R
KILLEEN        CLOUDY    45  32  61 NE10      30.46R WCI  39
KILLEEN-SKYLRK CLOUDY    46  28  49 NE10      30.46R
FORT HOOD      CLOUDY    45  32  59 NE12      30.46R WCI  40
GATESVILLE     CLOUDY    45  32  61 NE8       30.50R
HAMILTON       CLOUDY    45  31  59 E8        30.48R
LAMPASAS       CLOUDY    44  32  63 NE7       30.45S
$$

TXZ095>097-106>112-122>126-135>138-148>153-164>167-301600-
EAST TEXAS

CITY           SKY/WX    TMP DP  RH WIND       PRES   REMARKS
PARIS          MOSUNNY   39  30  70 E6        30.52S WCI  35
SULPHUR SPRNGS MOSUNNY   41  33  74 NE3       30.53S
MOUNT PLEASANT MOSUNNY   39  35  86 CALM      30.54R
GILMER         MOSUNNY   42  31  67 NE7       30.51S WCI  37
MINEOLA        MOSUNNY   43  34  70 CALM      30.52S
TYLER          MOSUNNY   44  30  57 E17G23    30.49R WCI  36
LONGVIEW       MOSUNNY   43  30  60 E14       30.51R WCI  36
MARSHALL       MOSUNNY   46  33  61 NE5       30.53S
ATHENS         MOSUNNY   43  30  61 E9G17     30.48S WCI  37
PALESTINE      MOSUNNY   45  33  61 NE12G21   30.48S WCI  39
JACKSONVILLE   MOSUNNY   43  32  63 MISG      30.48R
HENDERSON      MOSUNNY   44  31  62 NE14      30.51R WCI  37
NACOGDOCHES    MOSUNNY   45  28  53 E12G18    30.47S WCI  39
LUFKIN         PTSUNNY   46  32  58 NE8       30.46R
$$

SUPPLEMENTAL OBSERVATIONS (CENTRAL)

CITY           SKY/WX    TMP DP  RH WIND       PRES   REMARKS
CADDO GRASSLND   N/A     43  34  70 NE3         N/A
PAT MAYSE LAKE   N/A     41  32  70 NW2         N/A
GREENVILLE       N/A     41  32  70 NE6         N/A  WCI  37
CEDAR HILL       N/A     46  32  57 NE9         N/A
PALESTINE        N/A     46  32  57 NE10G18     N/A
MCGREGOR         N/A     45  32  61 NE12        N/A  WCI  39
TEMPLE           N/A     46  32  57 NE12        N/A
$$

SUPPLEMENTAL OBSERVATIONS (WEST)

CITY           SKY/WX    TMP DP  RH WIND       PRES   REMARKS
MILLERS CREEK    N/A     41  32  70 E9          N/A  WCI  35
POSSUM KINGDOM   N/A     43  32  65 NE8         N/A  WCI  38
LBJ GRASSLAND    N/A     43  32  65 NE6         N/A  WCI  39
GRANBURY         N/A     43  32  65 NE5         N/A
HAMBY            N/A     43  32  65 E7          N/A  WCI  39
$$

SUPPLEMENTAL OBSERVATIONS (EAST)

CITY           SKY/WX    TMP DP  RH WIND       PRES   REMARKS
TEXARKANA        N/A     43  32  65 E7          N/A  WCI  39
LINDEN           N/A     41  32  70 E6          N/A  WCI  37
HENDERSON        N/A     45  30  57 NE12        N/A  WCI  39
LUFKIN           N/A     45  32  61 MISG        N/A
N SABINE NF      N/A     43  32  65 MISG        N/A
$$

SUPPLEMENTAL OBSERVATIONS ARE A COLLECTION OF AUTOMATED INSTRUMENTS
THAT ARE MAINTAINED BY A VARIETY OF FEDERAL AND STATE AGENCIES.
CERTAIN ELEMENTS...SUCH AS HUMIDITY VALUES AND SUSTAINED WIND
SPEEDS...MAY BE APPROXIMATED.